Terminal Aerodrome Forecast
Issued by NWS

Home | Current Version | Previous Version | Graphics & Text | Print | Product List | Glossary On
Versions: 1 2 3 4 5 6 7 8 9 10 11 12 13 14 15 16
000
FTUS43 KBIS 270500
TAFMOT
TAF
KMOT 270520Z 2706/2806 22006KT P6SM SKC
     FM271900 18012KT P6SM SCT300=

USA.gov is the U.S. government's official web portal to all federal, state and local government web resources and services.